Submittal Forms
Current Contests
Recent Contests

Club Activity Tracker - SP DX Club (from club selection on form)

Recent postings for the selected club or group are listed below. Other than the call used, all calls listed are only those associated with the club or group. Click on a call to see the details of the posting.
Status Key: new=new posting, update=update prior posting, move=change club/group, delete=delete prior posting.

Sort by   for past

TimestampCallContestClassPowerScoreStatus
2021-05-13 04:01:40SN5J(@SP5JXK)CWopsTSingle OpLP384new6421
2021-05-12 20:03:16SN5J(@SP5JXK)CWopsTSingle OpLP3,283new6420
2021-05-12 20:02:36SP1DCWopsTSingle OpLP4,080new6420
2021-05-12 14:01:16SN5J(@SP5JXK)CWopsTSingle OpLP1,089new6419
2021-05-09 18:35:38SP9DLYVolta RTTYSOABLP28,800,756new6411
2021-05-09 16:52:36SN5J(@SP5JXK)CQ-MSOABCWLP384,126new6412
2021-05-06 03:56:54SN5J(@SP5JXK)CWopsTSingle OpLP462new6404
2021-05-05 20:02:19SN50AGCW(SP1D)CWopsTSingle OpLP2,068new6403
2021-05-03 00:10:09SP4ZNewEngQPSingle OpHP7,954new6397
2021-05-02 19:00:56SP4ZSPDX RTTYSOABHP212,520new6372
 
2021-05-02 13:10:31SN5J(@SP5JXK)ARISO CWLP848,730new6393
2021-05-02 13:07:04SP9DLYARISO RTTYLP316,134new6393
2021-04-29 03:56:19SN5J(@SP5JXK)CWopsTSingle OpLP196new6386
2021-04-28 22:11:19SN5J(@SP5JXK)CWopsTSingle OpLP2,475new6385
2021-04-28 20:06:37SP1DCWopsTSingle OpLP5,168new6385
2021-04-28 14:03:57SN5J(@SP5JXK)CWopsTSingle OpLP483new6384
2021-04-25 15:49:50SP9DLYSPDX RTTYSOABLP1,202,485new6372
2021-04-22 04:16:57SP1DCQMM DXSOABHP687,652new6356
2021-04-22 04:05:21SP1DCWopsTSingle OpLP529new6366
2021-04-22 04:04:40SN5J(@SP5JXK)CWopsTSingle OpLP440new6366
 
2021-04-21 20:03:26SP1DCWopsTSingle OpLP5,740new6365
2021-04-21 20:02:53SN5J(@SP5JXK)CWopsTSingle OpLP2,976new6365
2021-04-21 14:03:57SN5J(@SP5JXK)CWopsTSingle OpLP1,462new6364
2021-04-19 19:58:15SN5J(@SP5JXK)Holyland DXSO CWLP2,840new6352
2021-04-19 14:20:48SP9DLYCQMM DXSOABLP152,922update6356
2021-04-19 02:31:12SN5J(@SP5JXK)CQMM DXSOABLP336,630update6356
2021-04-15 04:03:57SN5J(@SP5JXK)CWopsTSingle OpLP676new